WXM80 ListenWXM80 Stop

You find our weather info also at:

UK Metoffice

WeatherCloud

Weather Underground

Northeastern Weather Network

AWEKAS

Citizen Weather Observer Program (CWOP)

HAMweather, WeatherForYou, PWS Weather


Weather Underground History page Text

Daily Summary for July 17, 2016 Units:  English    Metric   Both
« Previous Day
Next Day »
Daily Weekly Monthly Yearly Custom
  High: Low: Average:
Temperature: 94.2 °F 72.2 °F 81.2 °F
Dew Point: 77.2 °F 68.4 °F 72.2 °F
Humidity: 90 % 50 % 75 %
Wind Speed: 4.3 mph 0.0 mph 0.8 mph
Wind Gust: 7.0 mph - -
Wind:- - SSW
Pressure: 30.08 in 30.00 in -
Precipitation: 0.00 in    
Historical Graphs
 
 
Tabular Data for July 17, 2016
Time Temperature Dew Point Pressure Wind Wind Speed Wind Gust Humidity Rainfall Rate (Hourly)
00:01 74.6 °F 69.8 °F 30.03 in Calm     85 % 0.00 in
00:06 74.6 °F 69.8 °F 30.03 in Calm     85 % 0.00 in
00:11 74.6 °F 69.8 °F 30.03 in Calm     85 % 0.00 in
00:16 74.5 °F 69.7 °F 30.03 in Calm     85 % 0.00 in
00:21 74.4 °F 69.6 °F 30.03 in Calm     85 % 0.00 in
00:26 74.4 °F 69.6 °F 30.02 in Calm     85 % 0.00 in
00:31 74.3 °F 69.5 °F 30.03 in Calm     85 % 0.00 in
00:36 74.2 °F 69.4 °F 30.02 in Calm     85 % 0.00 in
00:41 74.1 °F 69.3 °F 30.02 in Calm     85 % 0.00 in
00:46 74.1 °F 69.3 °F 30.02 in Calm     85 % 0.00 in
00:52 74.0 °F 69.2 °F 30.02 in Calm     85 % 0.00 in
00:57 74.0 °F 69.2 °F 30.02 in Calm     85 % 0.00 in
01:02 74.0 °F 69.2 °F 30.02 in Calm     85 % 0.00 in
01:07 74.0 °F 69.2 °F 30.02 in Calm     85 % 0.00 in
01:12 73.9 °F 69.1 °F 30.02 in Calm     85 % 0.00 in
01:17 74.0 °F 69.5 °F 30.02 in Calm     86 % 0.00 in
01:22 73.9 °F 69.4 °F 30.02 in Calm     86 % 0.00 in
01:27 73.9 °F 69.4 °F 30.02 in Calm     86 % 0.00 in
01:32 73.9 °F 69.4 °F 30.01 in Calm     86 % 0.00 in
01:37 73.9 °F 69.8 °F 30.01 in Calm     87 % 0.00 in
01:43 73.9 °F 69.4 °F 30.01 in Calm     86 % 0.00 in
01:48 73.9 °F 69.4 °F 30.01 in Calm     86 % 0.00 in
01:53 73.8 °F 69.3 °F 30.01 in Calm     86 % 0.00 in
01:58 73.8 °F 69.3 °F 30.01 in Calm     86 % 0.00 in
02:03 73.7 °F 69.2 °F 30.01 in SW 0.1 mph 1.0 mph 86 % 0.00 in
02:08 73.7 °F 69.2 °F 30.00 in Calm     86 % 0.00 in
02:13 73.7 °F 69.2 °F 30.00 in Calm   1.2 mph 86 % 0.00 in
02:18 73.6 °F 69.2 °F 30.01 in Calm   1.2 mph 86 % 0.00 in
02:23 73.6 °F 69.2 °F 30.00 in Calm     86 % 0.00 in
02:28 73.6 °F 68.8 °F 30.00 in Calm     85 % 0.00 in
02:34 73.5 °F 68.7 °F 30.00 in Calm     85 % 0.00 in
02:39 73.5 °F 69.1 °F 30.00 in Calm     86 % 0.00 in
02:44 73.5 °F 69.1 °F 30.00 in Calm     86 % 0.00 in
02:49 73.5 °F 69.1 °F 30.00 in Calm     86 % 0.00 in
02:54 73.5 °F 69.1 °F 30.01 in Calm     86 % 0.00 in
02:59 73.5 °F 69.1 °F 30.00 in SW 0.3 mph 1.2 mph 86 % 0.00 in
03:04 73.5 °F 69.1 °F 30.00 in Calm     86 % 0.00 in
03:09 73.4 °F 68.6 °F 30.01 in Calm     85 % 0.00 in
03:14 73.4 °F 69.0 °F 30.00 in Calm     86 % 0.00 in
03:19 73.4 °F 69.0 °F 30.01 in Calm   1.2 mph 86 % 0.00 in
03:25 73.4 °F 69.0 °F 30.01 in Calm     86 % 0.00 in
03:30 73.4 °F 69.0 °F 30.00 in Calm     86 % 0.00 in
03:35 73.3 °F 68.9 °F 30.01 in Calm     86 % 0.00 in
03:40 73.3 °F 68.9 °F 30.01 in Calm     86 % 0.00 in
03:45 73.3 °F 69.2 °F 30.01 in Calm     87 % 0.00 in
03:50 73.2 °F 69.1 °F 30.01 in Calm     87 % 0.00 in
03:55 73.2 °F 69.1 °F 30.01 in Calm     87 % 0.00 in
04:00 73.1 °F 69.0 °F 30.01 in Calm   1.2 mph 87 % 0.00 in
04:05 73.1 °F 69.0 °F 30.02 in SW 0.1 mph 1.2 mph 87 % 0.00 in
04:10 73.0 °F 68.9 °F 30.02 in Calm   1.2 mph 87 % 0.00 in
04:16 73.0 °F 68.9 °F 30.02 in Calm   1.0 mph 87 % 0.00 in
04:21 72.9 °F 68.8 °F 30.02 in Calm     87 % 0.00 in
04:26 72.8 °F 68.7 °F 30.02 in Calm   1.0 mph 87 % 0.00 in
04:31 72.8 °F 68.7 °F 30.02 in Calm     87 % 0.00 in
04:36 72.7 °F 68.6 °F 30.02 in Calm   1.0 mph 87 % 0.00 in
04:41 72.6 °F 68.5 °F 30.02 in Calm     87 % 0.00 in
04:46 72.5 °F 68.8 °F 30.02 in Calm   1.0 mph 88 % 0.00 in
04:51 72.5 °F 68.7 °F 30.02 in Calm   1.0 mph 88 % 0.00 in
04:56 72.4 °F 68.6 °F 30.02 in Calm   1.0 mph 88 % 0.00 in
05:01 72.3 °F 68.5 °F 30.02 in Calm   1.2 mph 88 % 0.00 in
05:06 72.3 °F 68.5 °F 30.02 in Calm   1.2 mph 88 % 0.00 in
05:11 72.2 °F 68.8 °F 30.02 in SW 0.7 mph 2.0 mph 89 % 0.00 in
05:16 72.2 °F 68.8 °F 30.02 in SW 0.1 mph 2.3 mph 89 % 0.00 in
05:21 72.2 °F 68.8 °F 30.03 in SW 0.4 mph 1.2 mph 89 % 0.00 in
05:26 72.2 °F 68.4 °F 30.02 in Calm   1.2 mph 88 % 0.00 in
05:31 72.2 °F 68.4 °F 30.03 in SW 0.6 mph 1.2 mph 88 % 0.00 in
05:36 72.2 °F 68.4 °F 30.03 in Calm     88 % 0.00 in
05:41 72.2 °F 68.4 °F 30.04 in Calm     88 % 0.00 in
05:47 72.2 °F 68.4 °F 30.04 in Calm     88 % 0.00 in
05:52 72.3 °F 68.5 °F 30.04 in Calm     88 % 0.00 in
05:57 72.3 °F 68.5 °F 30.04 in Calm     88 % 0.00 in
06:02 72.4 °F 68.6 °F 30.04 in Calm     88 % 0.00 in
06:07 72.4 °F 68.6 °F 30.04 in Calm     88 % 0.00 in
06:12 72.4 °F 68.6 °F 30.04 in Calm     88 % 0.00 in
06:17 72.4 °F 68.6 °F 30.04 in Calm     88 % 0.00 in
06:22 72.4 °F 68.6 °F 30.04 in Calm     88 % 0.00 in
06:27 72.5 °F 68.7 °F 30.05 in Calm     88 % 0.00 in
06:32 72.5 °F 68.7 °F 30.05 in Calm     88 % 0.00 in
06:38 72.6 °F 68.8 °F 30.05 in Calm     88 % 0.00 in
06:43 72.6 °F 68.8 °F 30.05 in SSW 0.6 mph 3.5 mph 88 % 0.00 in
06:48 72.7 °F 69.3 °F 30.06 in Calm     89 % 0.00 in
06:53 72.9 °F 69.5 °F 30.05 in Calm     89 % 0.00 in
06:58 73.0 °F 69.9 °F 30.05 in SSW 0.2 mph 1.2 mph 90 % 0.00 in
07:03 73.1 °F 70.0 °F 30.05 in West 0.3 mph 2.3 mph 90 % 0.00 in
07:08 73.4 °F 70.3 °F 30.05 in Calm     90 % 0.00 in
07:13 73.6 °F 70.5 °F 30.05 in West 0.2 mph 1.2 mph 90 % 0.00 in
07:18 74.0 °F 70.2 °F 30.05 in Calm     88 % 0.00 in
07:23 74.4 °F 70.3 °F 30.05 in Calm   3.5 mph 87 % 0.00 in
07:29 74.8 °F 70.7 °F 30.05 in SW 0.1 mph 2.3 mph 87 % 0.00 in
07:34 75.1 °F 71.0 °F 30.06 in SW 0.2 mph 1.2 mph 87 % 0.00 in
07:39 75.3 °F 70.8 °F 30.05 in Calm     86 % 0.00 in
07:44 75.6 °F 71.1 °F 30.06 in SW 0.1 mph 1.2 mph 86 % 0.00 in
07:49 75.8 °F 71.0 °F 30.05 in SW 0.2 mph 1.2 mph 85 % 0.00 in
07:54 76.1 °F 70.9 °F 30.06 in WSW 0.8 mph 3.0 mph 84 % 0.00 in
07:59 76.4 °F 71.6 °F 30.06 in WSW 1.3 mph 2.3 mph 85 % 0.00 in
08:04 76.6 °F 71.4 °F 30.05 in WSW 0.1 mph 1.2 mph 84 % 0.00 in
08:09 76.8 °F 71.2 °F 30.06 in SW 0.5 mph 3.5 mph 83 % 0.00 in
08:20 77.2 °F 71.6 °F 30.05 in SW 0.1 mph 1.2 mph 83 % 0.00 in
08:25 77.4 °F 71.5 °F 30.06 in SW 1.3 mph 2.3 mph 82 % 0.00 in
08:30 77.6 °F 71.7 °F 30.05 in SW 0.5 mph 2.3 mph 82 % 0.00 in
08:35 77.8 °F 71.5 °F 30.05 in SW 0.4 mph 1.2 mph 81 % 0.00 in
08:40 78.0 °F 71.7 °F 30.05 in West 1.1 mph 3.5 mph 81 % 0.00 in
08:45 78.2 °F 71.5 °F 30.06 in SW 1.5 mph 3.5 mph 80 % 0.00 in
08:50 78.4 °F 72.1 °F 30.06 in Calm     81 % 0.00 in
08:55 78.5 °F 72.2 °F 30.06 in WNW 0.6 mph 2.3 mph 81 % 0.00 in
09:00 78.7 °F 73.1 °F 30.06 in WNW 0.8 mph 2.3 mph 83 % 0.00 in
09:05 78.9 °F 72.6 °F 30.07 in WNW 0.8 mph 2.3 mph 81 % 0.00 in
09:11 79.0 °F 72.7 °F 30.07 in Calm   3.0 mph 81 % 0.00 in
09:16 79.1 °F 72.4 °F 30.07 in Calm   5.0 mph 80 % 0.00 in
09:21 79.2 °F 72.8 °F 30.07 in WNW 1.0 mph 4.0 mph 81 % 0.00 in
09:26 79.1 °F 72.4 °F 30.06 in NW 3.0 mph 6.0 mph 80 % 0.00 in
09:31 79.0 °F 72.3 °F 30.06 in Calm   4.0 mph 80 % 0.00 in
09:36 78.9 °F 72.9 °F 30.07 in NNW 1.0 mph 4.0 mph 82 % 0.00 in
09:41 78.7 °F 72.7 °F 30.07 in Calm   4.0 mph 82 % 0.00 in
09:46 78.6 °F 73.0 °F 30.07 in WNW 1.0 mph 3.0 mph 83 % 0.00 in
09:51 78.4 °F 72.5 °F 30.07 in WNW 1.0 mph 5.0 mph 82 % 0.00 in
09:56 78.4 °F 72.8 °F 30.07 in NNW 2.0 mph 5.0 mph 83 % 0.00 in
10:00 78.5 °F 73.3 °F 30.07 in NW 1.6 mph 3.5 mph 84 % 0.00 in
10:06 78.8 °F 72.5 °F 30.07 in North 2.0 mph 5.0 mph 81 % 0.00 in
10:11 79.3 °F 73.0 °F 30.07 in NNW 1.0 mph 5.0 mph 81 % 0.00 in
10:15 80.1 °F 73.4 °F 30.07 in WNW 1.5 mph 4.6 mph 80 % 0.00 in
10:21 80.8 °F 73.7 °F 30.07 in Calm   4.0 mph 79 % 0.00 in
10:26 81.5 °F 73.2 °F 30.07 in WNW 2.0 mph 5.0 mph 76 % 0.00 in
10:30 82.1 °F 72.6 °F 30.07 in North 2.3 mph 4.6 mph 73 % 0.00 in
10:36 82.8 °F 73.7 °F 30.08 in NW 1.0 mph 4.0 mph 74 % 0.00 in
10:41 83.5 °F 73.1 °F 30.07 in NW 1.0 mph 5.0 mph 71 % 0.00 in
10:45 84.2 °F 73.8 °F 30.08 in NNE 1.7 mph 3.5 mph 71 % 0.00 in
10:51 84.9 °F 74.0 °F 30.08 in NNW 3.0 mph 6.0 mph 70 % 0.00 in
10:56 85.6 °F 75.5 °F 30.08 in North 1.0 mph 6.0 mph 72 % 0.00 in
11:01 86.2 °F 74.8 °F 30.07 in WNW 1.9 mph 3.5 mph 69 % 0.00 in
11:06 86.7 °F 73.5 °F 30.07 in West 3.8 mph 4.6 mph 65 % 0.00 in
11:11 87.0 °F 74.3 °F 30.08 in West 2.8 mph 6.9 mph 66 % 0.00 in
11:16 87.4 °F 74.6 °F 30.08 in SSW 1.2 mph 4.6 mph 66 % 0.00 in
11:21 87.9 °F 74.7 °F 30.08 in WNW 1.8 mph 4.6 mph 65 % 0.00 in
11:26 88.2 °F 74.5 °F 30.07 in West 0.7 mph 3.5 mph 64 % 0.00 in
11:31 88.5 °F 74.3 °F 30.08 in WNW 1.7 mph 3.5 mph 63 % 0.00 in
11:36 88.7 °F 74.5 °F 30.07 in NW 1.4 mph 3.5 mph 63 % 0.00 in
11:41 89.3 °F 75.5 °F 30.07 in North 1.4 mph 3.5 mph 64 % 0.00 in
11:47 89.7 °F 75.4 °F 30.07 in NE 3.0 mph 3.5 mph 63 % 0.00 in
11:52 90.0 °F 74.7 °F 30.07 in WSW 1.3 mph 3.5 mph 61 % 0.00 in
11:57 90.3 °F 74.0 °F 30.07 in WNW 2.3 mph 3.5 mph 59 % 0.00 in
12:02 90.3 °F 76.0 °F 30.07 in Calm   1.2 mph 63 % 0.00 in
12:07 90.7 °F 75.4 °F 30.07 in North 3.6 mph 5.0 mph 61 % 0.00 in
12:12 90.7 °F 75.9 °F 30.06 in North 3.2 mph 6.0 mph 62 % 0.00 in
12:17 90.9 °F 74.6 °F 30.06 in NNE 2.5 mph 3.5 mph 59 % 0.00 in
12:22 91.1 °F 75.8 °F 30.06 in NNW 2.2 mph 5.0 mph 61 % 0.00 in
12:27 91.1 °F 73.7 °F 30.07 in North 2.7 mph 4.6 mph 57 % 0.00 in
12:32 91.0 °F 74.7 °F 30.07 in North 2.3 mph 4.6 mph 59 % 0.00 in
12:38 91.2 °F 73.8 °F 30.07 in ENE 3.5 mph 4.6 mph 57 % 0.00 in
12:43 91.2 °F 75.9 °F 30.07 in WNW 1.5 mph 3.5 mph 61 % 0.00 in
12:48 91.4 °F 75.1 °F 30.07 in NNW 2.0 mph 5.0 mph 59 % 0.00 in
12:53 91.7 °F 75.8 °F 30.07 in NNE 0.8 mph 3.5 mph 60 % 0.00 in
12:58 92.0 °F 76.1 °F 30.06 in NNE 1.6 mph 3.5 mph 60 % 0.00 in
13:03 92.4 °F 76.0 °F 30.06 in WNW 1.1 mph 3.5 mph 59 % 0.00 in
13:08 92.8 °F 76.4 °F 30.06 in NNE 0.8 mph 3.5 mph 59 % 0.00 in
13:13 92.9 °F 75.9 °F 30.05 in NW 3.0 mph 4.6 mph 58 % 0.00 in
13:18 93.1 °F 76.1 °F 30.05 in North 3.2 mph 5.0 mph 58 % 0.00 in
13:23 93.2 °F 77.2 °F 30.05 in North 1.7 mph 5.0 mph 60 % 0.00 in
13:29 93.5 °F 74.4 °F 30.04 in NNW 2.4 mph 3.5 mph 54 % 0.00 in
13:34 93.9 °F 75.3 °F 30.04 in WNW 2.7 mph 6.0 mph 55 % 0.00 in
13:39 93.9 °F 74.7 °F 30.04 in WNW 3.1 mph 4.6 mph 54 % 0.00 in
13:44 94.1 °F 75.5 °F 30.03 in WNW 1.7 mph 3.5 mph 55 % 0.00 in
13:49 94.2 °F 74.4 °F 30.03 in NNW 1.4 mph 4.6 mph 53 % 0.00 in
13:54 94.2 °F 75.0 °F 30.04 in West 2.9 mph 6.0 mph 54 % 0.00 in
13:59 94.2 °F 74.4 °F 30.04 in WNW 1.7 mph 4.0 mph 53 % 0.00 in
14:04 94.2 °F 72.7 °F 30.04 in WNW 2.0 mph 4.6 mph 50 % 0.00 in
14:09 94.2 °F 75.6 °F 30.04 in NNE 2.3 mph 4.6 mph 55 % 0.00 in
14:14 94.1 °F 74.4 °F 30.04 in NW 2.7 mph 6.9 mph 53 % 0.00 in
14:20 94.0 °F 73.7 °F 30.03 in NNE 3.7 mph 4.0 mph 52 % 0.00 in
14:25 93.5 °F 73.8 °F 30.03 in NE 4.3 mph 5.8 mph 53 % 0.00 in
14:30 93.3 °F 74.7 °F 30.03 in NNE 3.3 mph 6.9 mph 55 % 0.00 in
14:35 93.6 °F 76.1 °F 30.03 in North 3.1 mph 5.8 mph 57 % 0.00 in
14:40 94.0 °F 77.0 °F 30.03 in NNW 1.3 mph 3.5 mph 58 % 0.00 in
14:45 94.1 °F 74.9 °F 30.03 in NE 2.7 mph 3.5 mph 54 % 0.00 in
14:50 93.4 °F 74.3 °F 30.04 in NW 0.5 mph 2.3 mph 54 % 0.00 in
14:55 93.0 °F 73.9 °F 30.03 in NE 1.2 mph 3.5 mph 54 % 0.00 in
15:00 92.9 °F 73.8 °F 30.03 in ENE 1.8 mph 4.6 mph 54 % 0.00 in
15:05 93.1 °F 74.5 °F 30.03 in NNE 1.2 mph 3.5 mph 55 % 0.00 in
15:11 93.1 °F 73.4 °F 30.03 in NNE 1.0 mph 3.0 mph 53 % 0.00 in
15:15 92.7 °F 73.6 °F 30.03 in NNE 1.0 mph 5.0 mph 54 % 0.00 in
15:20 92.3 °F 73.8 °F 30.03 in Calm   2.3 mph 55 % 0.00 in
15:25 92.3 °F 73.2 °F 30.03 in Calm   1.0 mph 54 % 0.00 in
15:30 92.2 °F 74.8 °F 30.03 in NNW 1.0 mph 6.0 mph 57 % 0.00 in
15:35 92.5 °F 75.0 °F 30.03 in WSW 0.5 mph 4.6 mph 57 % 0.00 in
15:41 92.8 °F 75.3 °F 30.03 in Calm   2.0 mph 57 % 0.00 in
15:45 93.1 °F 74.5 °F 30.03 in Calm   3.0 mph 55 % 0.00 in
15:50 93.0 °F 75.0 °F 30.04 in Calm   1.0 mph 56 % 0.00 in
15:55 92.5 °F 75.6 °F 30.04 in Calm   1.0 mph 58 % 0.00 in
16:01 92.3 °F 75.9 °F 30.04 in SW 2.3 mph 2.3 mph 59 % 0.00 in
16:06 92.3 °F 75.4 °F 30.04 in ESE 1.3 mph 2.3 mph 58 % 0.00 in
16:11 92.0 °F 74.6 °F 30.04 in SE 2.3 mph 3.5 mph 57 % 0.00 in
16:16 91.7 °F 73.2 °F 30.03 in SSW 3.1 mph 4.6 mph 55 % 0.00 in
16:21 91.6 °F 73.7 °F 30.03 in SW 0.9 mph 2.3 mph 56 % 0.00 in
16:26 91.2 °F 72.8 °F 30.03 in SE 2.0 mph 5.8 mph 55 % 0.00 in
16:31 90.2 °F 73.9 °F 30.03 in SSE 0.6 mph 3.5 mph 59 % 0.00 in
16:36 89.9 °F 74.2 °F 30.03 in South 0.3 mph 2.3 mph 60 % 0.00 in
16:41 89.6 °F 73.9 °F 30.03 in SSE 0.1 mph 2.3 mph 60 % 0.00 in
16:46 89.3 °F 74.1 °F 30.02 in South 0.6 mph 2.3 mph 61 % 0.00 in
16:52 89.1 °F 73.9 °F 30.03 in SSW 0.6 mph 3.5 mph 61 % 0.00 in
16:57 88.4 °F 73.2 °F 30.02 in SSE 0.6 mph 3.5 mph 61 % 0.00 in
17:02 88.1 °F 73.4 °F 30.03 in SW 0.8 mph 3.5 mph 62 % 0.00 in
17:07 87.8 °F 73.2 °F 30.03 in SW 0.4 mph 1.2 mph 62 % 0.00 in
17:12 87.3 °F 73.2 °F 30.03 in SSW 0.8 mph 2.3 mph 63 % 0.00 in
17:17 87.1 °F 73.4 °F 30.03 in South 0.1 mph 2.0 mph 64 % 0.00 in
17:22 87.0 °F 73.8 °F 30.03 in South 0.9 mph 2.3 mph 65 % 0.00 in
17:27 87.1 °F 73.4 °F 30.03 in South 0.1 mph 1.2 mph 64 % 0.00 in
17:32 87.0 °F 73.3 °F 30.03 in SSE 0.9 mph 3.5 mph 64 % 0.00 in
17:37 87.0 °F 73.3 °F 30.03 in SSW 1.0 mph 2.3 mph 64 % 0.00 in
17:43 87.0 °F 73.3 °F 30.03 in SSE 0.9 mph 2.3 mph 64 % 0.00 in
17:48 86.7 °F 73.5 °F 30.03 in SE 0.1 mph 2.0 mph 65 % 0.00 in
17:53 86.6 °F 73.4 °F 30.03 in SSE 0.3 mph 4.6 mph 65 % 0.00 in
17:58 86.5 °F 73.3 °F 30.03 in Calm   1.0 mph 65 % 0.00 in
18:03 86.4 °F 73.7 °F 30.03 in ESE 0.3 mph 1.2 mph 66 % 0.00 in
18:08 86.3 °F 73.6 °F 30.03 in SSW 1.4 mph 3.5 mph 66 % 0.00 in
18:13 86.1 °F 73.4 °F 30.03 in SSE 0.4 mph 2.3 mph 66 % 0.00 in
18:18 86.0 °F 73.8 °F 30.03 in SE 1.2 mph 2.3 mph 67 % 0.00 in
18:23 85.9 °F 73.7 °F 30.03 in SE 0.2 mph   67 % 0.00 in
18:28 85.8 °F 73.6 °F 30.03 in Calm   1.2 mph 67 % 0.00 in
18:34 85.7 °F 73.5 °F 30.03 in SE 0.3 mph 2.3 mph 67 % 0.00 in
18:39 85.4 °F 73.2 °F 30.03 in Calm   1.2 mph 67 % 0.00 in
18:44 85.2 °F 73.4 °F 30.03 in SE 0.4 mph 2.3 mph 68 % 0.00 in
18:49 85.1 °F 73.3 °F 30.03 in SE 0.4 mph 2.3 mph 68 % 0.00 in
18:54 85.0 °F 73.3 °F 30.03 in SSE 2.3 mph 5.8 mph 68 % 0.00 in
18:59 85.0 °F 73.3 °F 30.03 in SE 1.3 mph 3.5 mph 68 % 0.00 in
19:04 84.8 °F 73.1 °F 30.03 in SSE 1.1 mph 3.5 mph 68 % 0.00 in
19:09 84.8 °F 73.1 °F 30.03 in South 2.7 mph 6.9 mph 68 % 0.00 in
19:14 84.7 °F 73.4 °F 30.03 in SSW 1.7 mph 3.5 mph 69 % 0.00 in
19:19 84.6 °F 73.3 °F 30.03 in SW 0.8 mph 2.3 mph 69 % 0.00 in
19:25 84.6 °F 73.3 °F 30.03 in South 0.7 mph 3.5 mph 69 % 0.00 in
19:30 84.5 °F 73.6 °F 30.04 in WSW 1.8 mph 3.5 mph 70 % 0.00 in
19:35 84.3 °F 73.4 °F 30.03 in SSW 0.5 mph 2.3 mph 70 % 0.00 in
19:40 84.2 °F 73.3 °F 30.04 in South 0.8 mph 3.5 mph 70 % 0.00 in
19:45 84.0 °F 73.2 °F 30.04 in SSE 1.1 mph 2.3 mph 70 % 0.00 in
19:50 83.8 °F 73.0 °F 30.04 in SSE 0.3 mph 2.3 mph 70 % 0.00 in
19:55 83.6 °F 73.2 °F 30.04 in SSE 0.9 mph 2.3 mph 71 % 0.00 in
20:00 83.3 °F 72.9 °F 30.04 in West 1.0 mph 4.6 mph 71 % 0.00 in
20:05 83.1 °F 73.1 °F 30.04 in WSW 0.6 mph 3.0 mph 72 % 0.00 in
20:10 82.9 °F 73.4 °F 30.04 in WSW 0.7 mph 1.2 mph 73 % 0.00 in
20:16 82.7 °F 73.2 °F 30.05 in SW 1.0 mph 3.0 mph 73 % 0.00 in
20:21 82.5 °F 73.4 °F 30.04 in SSE 0.5 mph 1.2 mph 74 % 0.00 in
20:26 82.2 °F 73.5 °F 30.04 in Calm   2.0 mph 75 % 0.00 in
20:31 81.9 °F 73.6 °F 30.04 in SSE 1.0 mph 3.0 mph 76 % 0.00 in
20:36 81.6 °F 73.7 °F 30.04 in SE 1.4 mph 2.3 mph 77 % 0.00 in
20:41 81.5 °F 73.6 °F 30.05 in Calm   2.0 mph 77 % 0.00 in
20:46 81.4 °F 73.5 °F 30.05 in WSW 1.0 mph 4.0 mph 77 % 0.00 in
20:51 81.2 °F 73.7 °F 30.05 in West 1.2 mph 6.0 mph 78 % 0.00 in
20:56 81.0 °F 73.5 °F 30.05 in Calm   7.0 mph 78 % 0.00 in
21:01 80.8 °F 73.7 °F 30.05 in SW 0.5 mph 2.0 mph 79 % 0.00 in
21:06 80.6 °F 73.5 °F 30.05 in WSW 1.9 mph 3.5 mph 79 % 0.00 in
21:11 80.4 °F 73.7 °F 30.05 in Calm     80 % 0.00 in
21:16 80.2 °F 73.5 °F 30.05 in South 0.6 mph 2.3 mph 80 % 0.00 in
21:21 80.1 °F 73.4 °F 30.05 in Calm   1.2 mph 80 % 0.00 in
21:26 79.9 °F 73.2 °F 30.06 in Calm     80 % 0.00 in
21:31 79.7 °F 73.3 °F 30.06 in South 0.2 mph 1.0 mph 81 % 0.00 in
21:36 79.5 °F 73.2 °F 30.06 in Calm     81 % 0.00 in
21:41 79.4 °F 73.4 °F 30.06 in Calm     82 % 0.00 in
21:46 79.3 °F 73.3 °F 30.07 in Calm   1.2 mph 82 % 0.00 in
21:52 79.1 °F 73.1 °F 30.07 in Calm     82 % 0.00 in
21:57 79.0 °F 73.0 °F 30.07 in South 0.4 mph 1.2 mph 82 % 0.00 in
22:02 78.9 °F 73.3 °F 30.07 in South 0.5 mph 2.3 mph 83 % 0.00 in
22:07 78.7 °F 73.1 °F 30.07 in Calm   1.2 mph 83 % 0.00 in
22:12 78.6 °F 73.0 °F 30.07 in South 0.2 mph 1.2 mph 83 % 0.00 in
22:17 78.5 °F 72.9 °F 30.07 in South 1.1 mph 2.3 mph 83 % 0.00 in
22:22 78.4 °F 72.8 °F 30.07 in South 1.1 mph 2.0 mph 83 % 0.00 in
22:27 78.3 °F 73.1 °F 30.07 in South 1.2 mph 2.3 mph 84 % 0.00 in
22:32 78.2 °F 73.0 °F 30.07 in South 0.5 mph 1.2 mph 84 % 0.00 in
22:37 78.0 °F 72.8 °F 30.07 in South 0.3 mph 1.2 mph 84 % 0.00 in
22:43 77.9 °F 72.7 °F 30.07 in Calm     84 % 0.00 in
22:48 77.8 °F 72.6 °F 30.07 in South 0.7 mph 1.2 mph 84 % 0.00 in
22:53 77.7 °F 72.8 °F 30.07 in South 0.4 mph 1.2 mph 85 % 0.00 in
22:58 77.6 °F 72.7 °F 30.07 in South 0.4 mph 1.2 mph 85 % 0.00 in
23:03 77.4 °F 72.5 °F 30.07 in Calm   1.2 mph 85 % 0.00 in
23:08 77.3 °F 72.4 °F 30.07 in Calm     85 % 0.00 in
23:13 77.2 °F 72.3 °F 30.07 in South 0.1 mph 1.2 mph 85 % 0.00 in
23:18 77.1 °F 72.2 °F 30.07 in Calm   1.2 mph 85 % 0.00 in
23:23 77.0 °F 72.1 °F 30.07 in South 0.6 mph 1.2 mph 85 % 0.00 in
23:28 76.8 °F 72.3 °F 30.07 in South 0.5 mph 1.2 mph 86 % 0.00 in
23:34 76.7 °F 72.2 °F 30.07 in South 0.7 mph 2.3 mph 86 % 0.00 in
23:39 76.6 °F 72.1 °F 30.06 in South 0.2 mph 1.2 mph 86 % 0.00 in
23:44 76.5 °F 72.0 °F 30.06 in South 0.8 mph 2.3 mph 86 % 0.00 in
23:49 76.4 °F 71.9 °F 30.06 in South 0.9 mph 2.3 mph 86 % 0.00 in
23:54 76.3 °F 72.1 °F 30.06 in South 1.0 mph 2.0 mph 87 % 0.00 in
23:59 76.1 °F 71.9 °F 30.06 in South 0.6 mph 1.2 mph 87 % 0.00 in
Crab Meadow Weather
Compliments of Weather Underground - 3 mb

Script developed by  Jim McMurry - jmcmurry@mwt.net Adapted for the template by  Wim van der Kuil - Leuven-Template.eu

Dew Point: The dew point is the temperature to which air must be cooled, at constant barometric pressure, for water vapor to condense into water. The condensed water is called dew. When the dew point temperature falls below freezing it is called the frost point, as the water no longer creates dew but instead creates frost. The dew point is associated with relative humidity. A high relative humidity indicates that the dew point is closer to the current air temperature. If the relative humidity is 100%, the dew point is equal to the current temperature. Given a constant dew point, an increase in temperature will lead to a decrease in relative humidity.